This is the latest recevied weather packets stored in our database for station/object N7WSS. If no packets are shown the sender has not sent any weather packets the latest 10 day(s).
| Time | Temp. | Humidity | Pressure | Rain* | Wind** | Luminosity | Snow |
|---|---|---|---|---|---|---|---|
| 1777251739 | 23.33° C | 25% | 1008.2 hPa | 0 mm | - | - | - |
| 1777251436 | 23.89° C | 24% | 1008.3 hPa | 0 mm | - | - | - |
| 1777251132 | 23.89° C | 24% | 1008.2 hPa | 0 mm | - | - | - |
| 1777250829 | 23.89° C | 25% | 1008.3 hPa | 0 mm | - | - | - |
| 1777250525 | 23.89° C | 29% | 1008.3 hPa | 0 mm | - | - | - |
| 1777250226 | 23.33° C | 29% | 1008.2 hPa | 0 mm | - | - | - |
| 1777249923 | 23.89° C | 29% | 1008.1 hPa | 0 mm | - | - | - |
| 1777249619 | 24.44° C | 29% | 1008.2 hPa | 0 mm | - | - | - |
| 1777249315 | 23.33° C | 29% | 1008.1 hPa | 0 mm | - | - | - |
| 1777249013 | 23.33° C | 30% | 1008.1 hPa | 0 mm | - | - | - |
| 1777248708 | 24.44° C | 28% | 1008.1 hPa | 0 mm | - | - | - |
| 1777248405 | 25° C | 27% | 1008 hPa | 0 mm | - | - | - |
| 1777248102 | 24.44° C | 28% | 1008 hPa | 0 mm | - | - | - |
| 1777247799 | 23.33° C | 30% | 1008 hPa | 0 mm | - | - | - |
| 1777247497 | 23.33° C | 29% | 1008.2 hPa | 0 mm | - | - | - |
| 1777247195 | 24.44° C | 29% | 1008.1 hPa | 0 mm | - | - | - |
| 1777246892 | 24.44° C | 28% | 1008.2 hPa | 0 mm | - | - | - |
| 1777246588 | 23.89° C | 27% | 1008.1 hPa | 0 mm | - | - | - |
| 1777246285 | 23.89° C | 28% | 1008 hPa | 0 mm | - | - | - |
| 1777245983 | 25° C | 28% | 1008 hPa | 0 mm | - | - | - |
| 1777245681 | 25° C | 27% | 1008.2 hPa | 0 mm | - | - | - |
| 1777245378 | 25° C | 28% | 1007.9 hPa | 0 mm | - | - | - |
| 1777245078 | 24.44° C | 28% | 1007.9 hPa | 0 mm | - | - | - |
| 1777244774 | 23.33° C | 29% | 1007.9 hPa | 0 mm | - | - | - |
| 1777244470 | 23.33° C | 29% | 1008 hPa | 0 mm | - | - | - |
* Rain latest hour (hover to see other rain measurements)
** Current wind speed in m/s (hover to see current wind gust speed)